Location: Northern Prairie Star Party
(53.2167°N, 112.5333°W)
Time: 03:22:58
(UTC-07:00)

Amateur Radio Satellites - All Passes

Search period start: 21 November 2014 02:52
Search period end: 22 November 2014 02:52
Location: Northern Prairie Star Party, 53.2167°N, 112.5333°W

Satellite Date Start Highest point End Downlink Frequencies (MHz)
Time Altitude Azimuth
PCSat 21 Nov 02:53:14 02:57:21 21° 14° (NNE) 03:01:27 145.827
Gurwin Techsat 1B 21 Nov 02:53:41 02:58:45 42° 97° (E) 03:03:45 435.225
ITAMSAT 1 21 Nov 02:54:18 02:59:29 65° 103° (ESE) 03:04:38 435.822/435.867
KKS-1 21 Nov 02:59:53 03:03:43 28° 266° (W) 03:07:34 437.445
ISS 21 Nov 03:13:13 03:16:16 36° 157° (SSE) 03:19:20 145.825
YUBILEINY 21 Nov 03:14:28 03:23:04 61° 92° (E) 03:31:39 435.215
BEESAT 3 21 Nov 03:19:04 03:22:06 19° 13° (NNE) 03:25:09 437.485
MOZHAYETS 4 21 Nov 03:24:13 03:28:05 27° 61° (ENE) 03:31:58
BEESAT 2 21 Nov 03:29:55 03:33:02 20° 14° (NNE) 03:36:10 435.950
AO-7 21 Nov 03:33:42 03:40:15 25° 88° (E) 03:46:45 29.400- 29.500
AIST 2 21 Nov 03:39:23 03:42:29 19° 9° (N) 03:45:34 435.215
JAS-2 21 Nov 03:44:47 03:46:34 11° 72° (ENE) 03:48:20 435.910
Oscar 19 21 Nov 03:53:47 03:57:53 24° 303° (WNW) 04:01:58 437.125/150
HORYU 2 21 Nov 03:58:10 04:02:39 71° 104° (ESE) 04:07:08 437.375
Gurwin Techsat 1B 21 Nov 04:33:48 04:38:43 39° 297° (WNW) 04:43:36 435.225
ITAMSAT 1 21 Nov 04:34:22 04:38:38 26° 303° (WNW) 04:42:51 435.822/435.867
PCSat 21 Nov 04:36:53 04:42:07 44° 39° (NE) 04:47:18 145.827
STRAND 1 21 Nov 04:46:20 04:50:11 22° 54° (NE) 04:54:02 437.568
ISS 21 Nov 04:49:25 04:52:42 67° 177° (S) 04:55:59 145.825
CUBESAT XI-V 21 Nov 04:50:30 04:53:52 20° 56° (ENE) 04:57:15 437.345
BEESAT 3 21 Nov 04:57:18 05:01:20 42° 36° (NE) 05:05:21 437.485
RS-15 21 Nov 04:58:17 05:04:18 16° 266° (W) 05:10:28 29.354- 29.394
PRISM 21 Nov 04:59:44 05:03:46 46° 67° (ENE) 05:07:51 437.425
MOZHAYETS 4 21 Nov 05:00:39 05:05:06 50° 261° (W) 05:09:38
SO-50 21 Nov 05:06:35 05:10:10 23° 116° (ESE) 05:13:51 436.795
BEESAT 2 21 Nov 05:08:11 05:12:17 46° 37° (NE) 05:16:21 435.950
YUBILEINY 21 Nov 05:12:05 05:20:20 42° 296° (WNW) 05:28:36 435.215
AIST 2 21 Nov 05:18:10 05:22:13 37° 33° (NNE) 05:26:15 435.215
AO-7 21 Nov 05:25:49 05:34:15 85° 111° (ESE) 05:42:39 29.400- 29.500
JAS-2 21 Nov 05:26:26 05:33:45 49° 95° (E) 05:40:18 435.910
CUTE-I 21 Nov 05:34:26 05:37:36 16° 86° (E) 05:40:45 437.470
HORYU 2 21 Nov 05:35:39 05:38:55 20° 303° (WNW) 05:42:10 437.375
PCSat 21 Nov 06:20:25 06:25:39 49° 240° (WSW) 06:30:51 145.827
STRAND 1 21 Nov 06:23:41 06:28:51 81° 255° (WSW) 06:34:03 437.568
AIST 1 21 Nov 06:25:39 06:29:09 22° 64° (ENE) 06:32:37
ISS 21 Nov 06:26:00 06:29:12 47° 197° (SSW) 06:32:24 145.825
CUBESAT XI-V 21 Nov 06:26:04 06:30:49 79° 256° (WSW) 06:35:35 437.345
Cubesat XI-IV 21 Nov 06:30:14 06:35:19 41° 97° (E) 06:40:19 437.490
BEESAT 3 21 Nov 06:35:39 06:39:37 40° 236° (WSW) 06:43:31 437.485
PRISM 21 Nov 06:36:06 06:39:33 24° 267° (W) 06:43:03 437.425
O/OREOS (USA 219) 21 Nov 06:39:56 06:43:03 19° 102° (ESE) 06:46:11 437.305
SO-50 21 Nov 06:45:42 06:50:17 74° 317° (NW) 06:55:03 436.795
BEESAT 2 21 Nov 06:46:40 06:50:32 35° 238° (WSW) 06:54:22 435.950
AIST 2 21 Nov 06:56:50 07:01:02 51° 234° (SW) 07:05:11 435.215
JAS-2 21 Nov 07:11:34 07:18:49 49° 299° (WNW) 07:25:24 435.910
GONETS M04 21 Nov 07:12:00 07:17:12 18° 69° (ENE) 07:22:25
CUTE-I 21 Nov 07:13:09 07:18:32 84° 106° (ESE) 07:23:51 437.470
YUBILEINY 21 Nov 07:15:55 07:20:15 14° 325° (NW) 07:24:34 435.215
AO-7 21 Nov 07:19:08 07:26:19 34° 314° (NW) 07:33:31 29.400- 29.500
HO-68 21 Nov 07:51:48 07:55:47 15° 82° (E) 07:59:45 435.675
AIST 1 21 Nov 08:02:51 08:07:10 53° 265° (W) 08:11:26
ISS 21 Nov 08:03:12 08:05:20 16° 216° (SW) 08:07:27 145.825
STRAND 1 21 Nov 08:06:04 08:08:53 15° 275° (W) 08:11:43 437.568
CUBESAT XI-V 21 Nov 08:06:59 08:09:05 13° 276° (W) 08:11:11 437.345
CANX-2 21 Nov 08:09:44 08:11:19 12° 85° (E) 08:12:54 2200.000
Cubesat XI-IV 21 Nov 08:10:28 08:15:25 39° 298° (WNW) 08:20:20 437.490
ANTELSAT 21 Nov 08:13:09 08:13:40 10° 49° (NE) 08:14:10 437.575/2403.000
O/OREOS (USA 219) 21 Nov 08:17:30 08:21:59 70° 302° (WNW) 08:26:29 437.305
SO-50 21 Nov 08:27:36 08:31:35 27° 340° (NNW) 08:35:40 436.795
NANOSAT C BR1 21 Nov 08:27:39 08:28:10 10° 50° (NE) 08:28:42 145.865
COMPASS 1 21 Nov 08:28:24 08:30:14 12° 86° (E) 08:32:04 437.405
QB50P1 21 Nov 08:35:34 08:37:12 12° 52° (NE) 08:38:49 145.935-145.965
CUTE 1.7 & AOD 2 21 Nov 08:43:46 08:47:09 22° 91° (E) 08:50:31 437.475
CUTE-I 21 Nov 08:54:03 08:58:02 22° 306° (NW) 09:02:00 437.470
DOVE 4 21 Nov 08:55:09 08:57:40 15° 88° (E) 09:00:09 437.250
JAS-2 21 Nov 08:57:40 09:02:07 17° 322° (NW) 09:06:23 435.910
POPSAT HIP 1 21 Nov 08:58:07 09:00:59 18° 57° (ENE) 09:03:51 437.405
Oscar 11 21 Nov 09:03:25 09:05:40 14° 86° (E) 09:07:55 145.826/435.025
GONETS M04 21 Nov 09:03:36 09:12:15 65° 93° (E) 09:20:59
TIGRISAT 21 Nov 09:07:28 09:11:02 26° 62° (ENE) 09:14:36 435.000
GOMX 1 21 Nov 09:12:00 09:15:36 27° 94° (E) 09:19:10 467.674
BUGSAT 1 21 Nov 09:12:26 09:15:34 20° 59° (ENE) 09:18:42 437.445
AO-7 21 Nov 09:12:30 09:16:44 15° 339° (NNW) 09:20:58 29.400- 29.500
BRITE-PL 21 Nov 09:13:28 09:17:25 37° 97° (E) 09:21:16 437.365/2234.400
UNISAT 6 21 Nov 09:17:47 09:21:36 32° 64° (ENE) 09:25:25 437.425
DX 1 21 Nov 09:17:50 09:20:38 17° 89° (E) 09:23:26 434.975-435.025
SEEDS 21 Nov 09:23:13 09:27:19 44° 98° (E) 09:31:24 437.485
POLYITAN 1 21 Nov 09:27:16 09:31:00 30° 63° (ENE) 09:34:43 437.675
QB50P2 21 Nov 09:31:24 09:35:12 32° 64° (ENE) 09:39:01 145.880/145.840
HO-68 21 Nov 09:37:48 09:44:59 65° 104° (ESE) 09:52:05 435.675
DUCHIFAT 1 21 Nov 09:40:47 09:44:44 38° 66° (ENE) 09:48:41 145.980
ZACube-1 21 Nov 09:41:39 09:44:02 15° 88° (E) 09:46:26 437.345
CANX-2 21 Nov 09:43:41 09:47:59 83° 104° (ESE) 09:52:17 2200.000
ANTELSAT 21 Nov 09:45:25 09:49:36 55° 70° (ENE) 09:53:48 437.575/2403.000
AISAT 21 Nov 09:47:51 09:49:36 12° 85° (E) 09:51:20 437.250
AAUSAT CUBESAT 2 21 Nov 09:50:48 09:55:00 63° 102° (ESE) 09:59:12 437.432
Cubesat XI-IV 21 Nov 09:53:58 09:54:11 10° 319° (NW) 09:54:23 437.490
NANOSAT C BR1 21 Nov 09:59:01 10:03:12 55° 70° (ENE) 10:07:22 145.865
O/OREOS (USA 219) 21 Nov 09:59:17 10:02:14 17° 324° (NW) 10:05:11 437.305
COMPASS 1 21 Nov 10:02:23 10:06:39 88° 105° (ESE) 10:10:54 437.405
HUMSAT D 21 Nov 10:04:30 10:07:02 16° 88° (E) 10:09:34 437.325/437.525
QB50P1 21 Nov 10:08:06 10:12:20 67° 71° (ENE) 10:16:35 145.935-145.965
CINEMA 3 21 Nov 10:09:17 10:13:20 47° 99° (E) 10:17:24 145.822/145.860
SO-50 21 Nov 10:09:54 10:13:33 21° 5° (N) 10:17:15 436.795
FUNcube-1 21 Nov 10:17:17 10:21:00 30° 95° (E) 10:24:44 145.935
CUBEBUG 2 21 Nov 10:18:37 10:22:34 40° 98° (E) 10:26:34 437.445
CUTE 1.7 & AOD 2 21 Nov 10:19:13 10:23:23 51° 291° (WNW) 10:27:32 437.475
DELFI C3 21 Nov 10:22:35 10:26:42 61° 102° (ESE) 10:30:48 145.870
UKube-1 21 Nov 10:22:44 10:27:04 60° 102° (ESE) 10:31:21 .
50 SAT 21 Nov 10:27:56 10:31:04 21° 92° (E) 10:34:12 437.505
UWE-3 21 Nov 10:29:54 10:33:55 45° 99° (E) 10:37:59 435.000/436.395/437.385
DOVE 4 21 Nov 10:31:50 10:35:59 70° 288° (WNW) 10:40:08 437.250
POPSAT HIP 1 21 Nov 10:32:10 10:36:27 75° 256° (WSW) 10:40:44 437.405
Oscar 11 21 Nov 10:38:06 10:42:29 86° 287° (WNW) 10:46:50 145.826/435.025
ESTCUBE 1 21 Nov 10:40:17 10:43:11 16° 88° (E) 10:46:03 437.505/2401.250
TIGRISAT 21 Nov 10:43:33 10:47:39 44° 261° (W) 10:51:45 435.000
BUGSAT 1 21 Nov 10:46:28 10:50:43 64° 258° (WSW) 10:54:57 437.445
GOMX 1 21 Nov 10:50:01 10:53:54 38° 294° (WNW) 10:57:45 467.674
BRITE-PL 21 Nov 10:52:14 10:55:55 29° 297° (WNW) 10:59:29 437.365/2234.400
DX 1 21 Nov 10:53:02 10:57:25 73° 288° (WNW) 11:01:45 434.975-435.025
UNISAT 6 21 Nov 10:54:27 10:58:24 35° 263° (W) 11:02:21 437.425
SEEDS 21 Nov 10:59:26 11:03:00 27° 298° (WNW) 11:06:35 437.485
VELOX 1 21 Nov 10:59:37 11:03:58 50° 100° (E) 11:08:15 145.980
GONETS M04 21 Nov 11:01:32 11:09:41 40° 298° (WNW) 11:17:55
POLYITAN 1 21 Nov 11:02:52 11:06:53 39° 262° (W) 11:10:54 437.675
AO-7 21 Nov 11:03:16 11:06:10 12° 7° (N) 11:09:05 29.400- 29.500
QB50P2 21 Nov 11:07:10 11:11:07 36° 263° (W) 11:15:04 145.880/145.840
ZACube-1 21 Nov 11:16:47 11:20:58 76° 287° (WNW) 11:25:11 437.345
DUCHIFAT 1 21 Nov 11:16:56 11:20:42 30° 265° (W) 11:24:29 145.980
YUBILEINY 21 Nov 11:20:40 11:25:07 15° 36° (NE) 11:29:32 435.215
CANX-2 21 Nov 11:20:44 11:23:25 16° 304° (WNW) 11:26:05 2200.000
AISAT 21 Nov 11:22:32 11:27:01 81° 105° (ESE) 11:31:26 437.250
ANTELSAT 21 Nov 11:23:34 11:26:47 20° 269° (W) 11:30:00 437.575/2403.000
HO-68 21 Nov 11:25:55 11:32:23 38° 306° (NW) 11:38:49 435.675
AAUSAT CUBESAT 2 21 Nov 11:27:15 11:30:20 20° 301° (WNW) 11:33:25 437.432
NANOSAT C BR1 21 Nov 11:36:11 11:39:26 21° 269° (W) 11:42:40 145.865
HUMSAT D 21 Nov 11:39:13 11:43:21 71° 288° (WNW) 11:47:30 437.325/437.525
COMPASS 1 21 Nov 11:39:21 11:41:49 15° 304° (NW) 11:44:18 437.405
QB50P1 21 Nov 11:45:50 11:48:42 17° 271° (W) 11:51:35 145.935-145.965
CINEMA 3 21 Nov 11:47:01 11:50:22 24° 299° (WNW) 11:53:43 145.822/145.860
SO-50 21 Nov 11:50:54 11:55:20 36° 29° (NNE) 11:59:51 436.795
FUNcube-1 21 Nov 11:53:37 11:57:27 36° 294° (WNW) 12:01:19 145.935
CUBEBUG 1 21 Nov 11:55:02 11:59:27 68° 103° (ESE) 12:03:48 437.445
CUBEBUG 2 21 Nov 11:55:38 11:59:12 28° 297° (WNW) 12:02:48 437.445
Oscar 19 21 Nov 11:58:31 12:03:04 34° 61° (ENE) 12:07:39 437.125/150
DELFI C3 21 Nov 11:58:39 12:01:40 20° 301° (WNW) 12:04:41 145.870
UKube-1 21 Nov 11:59:33 12:02:54 22° 302° (WNW) 12:06:14 .
50 SAT 21 Nov 12:02:46 12:06:41 48° 291° (WNW) 12:10:35 437.505
SPROUT 21 Nov 12:04:27 12:07:59 24° 93° (E) 12:11:30 437.525
UWE-3 21 Nov 12:06:53 12:10:20 25° 298° (WNW) 12:13:48 435.000/436.395/437.385
TISAT 1 21 Nov 12:10:44 12:14:30 30° 95° (E) 12:18:14 437.305
DOVE 4 21 Nov 12:11:38 12:13:03 12° 308° (NW) 12:14:27 437.250
POPSAT HIP 1 21 Nov 12:12:16 12:13:08 11° 276° (W) 12:14:01 437.405
Oscar 11 21 Nov 12:15:34 12:18:03 15° 305° (NW) 12:20:32 145.826/435.025
ESTCUBE 1 21 Nov 12:16:04 12:20:39 78° 287° (WNW) 12:25:11 437.505/2401.250
SHINDAISAT 21 Nov 12:29:25 12:31:21 54° 130° (SE) 12:33:17 437.305
DX 1 21 Nov 12:30:50 12:32:56 13° 308° (NW) 12:35:02 434.975-435.025
VELOX 1 21 Nov 12:36:39 12:40:21 26° 300° (WNW) 12:44:00 145.980
ITAMSAT 1 21 Nov 12:39:58 12:44:38 34° 61° (ENE) 12:49:18 435.822/435.867
AUBIESAT-1 21 Nov 12:40:41 12:43:32 15° 92° (E) 12:46:23 437.475
M-CUBED/EXP-1 PRIME 21 Nov 12:41:59 12:45:09 17° 93° (E) 12:48:19 437.505
Gurwin Techsat 1B 21 Nov 12:42:47 12:46:57 24° 56° (NE) 12:51:08 435.225
AO-7 21 Nov 12:50:07 12:55:59 22° 34° (NE) 13:01:52 29.400- 29.500
ZACube-1 21 Nov 12:54:50 12:56:42 13° 306° (NW) 12:58:34 437.345
BEESAT 21 Nov 12:56:02 12:59:15 18° 88° (E) 13:02:26 436.000
AISAT 21 Nov 13:00:10 13:03:08 18° 305° (NW) 13:06:05 437.250
GONETS M04 21 Nov 13:05:44 13:09:48 14° 327° (NNW) 13:13:53
HO-68 21 Nov 13:15:02 13:18:12 14° 330° (NNW) 13:21:23 435.675
YUBILEINY 21 Nov 13:16:41 13:24:58 44° 65° (ENE) 13:33:09 435.215
HUMSAT D 21 Nov 13:16:54 13:18:28 12° 307° (NW) 13:20:03 437.325/437.525
HORYU 2 21 Nov 13:27:34 13:31:01 23° 58° (ENE) 13:34:29 437.375
SO-50 21 Nov 13:31:27 13:36:16 69° 230° (SW) 13:41:08 436.795
CUBEBUG 1 21 Nov 13:32:13 13:35:25 20° 303° (WNW) 13:38:36 437.445
Oscar 19 21 Nov 13:37:25 13:42:19 46° 261° (W) 13:47:16 437.125/150
SPROUT 21 Nov 13:40:11 13:44:19 47° 292° (WNW) 13:48:25 437.525
TISAT 1 21 Nov 13:46:31 13:50:26 37° 295° (WNW) 13:54:19 437.305
ITUPSAT 1 21 Nov 13:47:39 13:52:18 44° 99° (E) 13:56:53 437.325
ESTCUBE 1 21 Nov 13:54:17 13:56:50 15° 307° (NW) 13:59:22 437.505/2401.250
SWISSCUBE 21 Nov 14:00:36 14:05:24 62° 102° (ESE) 14:10:09 437.505
SHINDAISAT 21 Nov 14:01:47 14:02:33 11° 330° (NNW) 14:03:19 437.305
JAS-2 21 Nov 14:03:00 14:07:31 17° 38° (NE) 14:12:03 435.910
CUSAT 1 21 Nov 14:11:05 14:13:49 74° 102° (ESE) 14:16:26 437.405
AUBIESAT-1 21 Nov 14:14:18 14:19:11 83° 111° (ESE) 14:24:07 437.475
DANDE 21 Nov 14:14:35 14:17:25 65° 102° (ESE) 14:20:01 436.750
STARS 21 Nov 14:15:17 14:17:55 16° 88° (E) 14:20:33 437.465
M-CUBED/EXP-1 PRIME 21 Nov 14:15:54 14:20:48 90° 113° (ESE) 14:25:45 437.505
ITAMSAT 1 21 Nov 14:18:58 14:24:01 48° 261° (W) 14:29:05 435.822/435.867
Gurwin Techsat 1B 21 Nov 14:21:09 14:26:28 74° 256° (WSW) 14:31:49 435.225
BEESAT 21 Nov 14:32:52 14:37:42 79° 288° (WNW) 14:42:30 436.000
AO-7 21 Nov 14:39:10 14:47:13 58° 59° (ENE) 14:55:19 29.400- 29.500
KKS-1 21 Nov 14:44:15 14:48:24 37° 97° (E) 14:52:32 437.445
HORYU 2 21 Nov 15:03:00 15:07:23 59° 258° (WSW) 15:11:48 437.375
O/OREOS (USA 219) 21 Nov 15:03:11 15:06:43 22° 41° (NE) 15:10:13 437.305
RS-15 21 Nov 15:11:06 15:15:13 13° 91° (E) 15:19:19 29.354- 29.394
SO-50 21 Nov 15:13:33 15:16:02 14° 250° (WSW) 15:18:32 436.795
YUBILEINY 21 Nov 15:13:39 15:22:09 59° 269° (W) 15:30:35 435.215
ITUPSAT 1 21 Nov 15:25:48 15:30:05 32° 298° (WNW) 15:34:20 437.325
CUTE-I 21 Nov 15:26:17 15:28:05 12° 43° (NE) 15:29:52 437.470
SWISSCUBE 21 Nov 15:39:04 15:42:56 25° 302° (WNW) 15:46:48 437.505
JAS-2 21 Nov 15:43:34 15:50:47 47° 60° (ENE) 15:58:11 435.910
AUBIESAT-1 21 Nov 15:50:01 15:53:42 22° 310° (NW) 15:57:26 437.475
STARS 21 Nov 15:50:34 15:54:59 79° 288° (WNW) 15:59:22 437.465
M-CUBED/EXP-1 PRIME 21 Nov 15:51:45 15:55:18 21° 311° (NW) 15:58:54 437.505
Gurwin Techsat 1B 21 Nov 16:04:46 16:07:23 14° 276° (W) 16:10:01 435.225
BEESAT 21 Nov 16:11:57 16:14:51 16° 308° (NW) 16:17:44 436.000
Cubesat XI-IV 21 Nov 16:20:04 16:24:23 25° 56° (NE) 16:28:43 437.490
KKS-1 21 Nov 16:21:03 16:25:02 33° 297° (WNW) 16:28:59 437.445
AO-7 21 Nov 16:32:24 16:40:16 46° 261° (W) 16:48:14 29.400- 29.500
O/OREOS (USA 219) 21 Nov 16:42:10 16:46:39 77° 243° (WSW) 16:51:07 437.305
HO-68 21 Nov 16:46:09 16:47:18 10° 23° (NNE) 16:48:28 435.675
MOZHAYETS 4 21 Nov 16:49:49 16:53:47 27° 92° (E) 16:57:43
MaSat-1 21 Nov 16:52:30 16:55:17 38° 119° (ESE) 16:57:52 437.345
CUTE-I 21 Nov 17:01:51 17:06:58 46° 65° (ENE) 17:12:04 437.470
GONETS M04 21 Nov 17:09:45 17:14:44 16° 38° (NE) 17:19:42
YUBILEINY 21 Nov 17:12:37 17:16:59 15° 293° (WNW) 17:21:21 435.215
RS-15 21 Nov 17:14:14 17:24:34 51° 116° (ESE) 17:34:57 29.354- 29.394
JAS-2 21 Nov 17:28:12 17:35:40 56° 262° (W) 17:43:26 435.910
STARS 21 Nov 17:28:28 17:30:48 14° 307° (NW) 17:33:08 437.465
Cubesat XI-IV 21 Nov 17:58:42 18:04:04 71° 256° (WSW) 18:09:27 437.490
PRISM 21 Nov 18:12:27 18:16:19 32° 96° (E) 18:20:08 437.425
CUBESAT XI-V 21 Nov 18:17:40 18:20:55 18° 88° (E) 18:24:08 437.345
O/OREOS (USA 219) 21 Nov 18:23:38 18:25:16 12° 263° (W) 18:26:53 437.305
MOZHAYETS 4 21 Nov 18:26:45 18:31:15 49° 292° (WNW) 18:35:44
HO-68 21 Nov 18:26:56 18:32:43 27° 48° (NE) 18:38:31 435.675
MaSat-1 21 Nov 18:28:04 18:30:07 18° 316° (NW) 18:32:03 437.345
STRAND 1 21 Nov 18:28:34 18:32:33 22° 90° (E) 18:36:29 437.568
VERMONT LUNAR 21 Nov 18:31:23 18:32:11 11° 172° (S) 18:32:59 437.305
SHINDAISAT 21 Nov 18:36:38 18:38:03 17° 35° (NE) 18:39:28 437.305
CUTE-I 21 Nov 18:42:18 18:47:11 35° 265° (W) 18:52:06 437.470
SEEDS 21 Nov 18:49:07 18:50:44 12° 52° (NE) 18:52:22 437.485
GOMX 1 21 Nov 18:51:17 18:53:12 13° 53° (NE) 18:55:04 467.674
BRITE-PL 21 Nov 18:53:49 18:56:59 17° 56° (ENE) 19:00:00 437.365/2234.400
GONETS M04 21 Nov 19:05:57 19:14:27 47° 66° (ENE) 19:22:52
CANX-2 21 Nov 19:08:31 19:11:36 20° 59° (ENE) 19:14:42 2200.000
AAUSAT CUBESAT 2 21 Nov 19:14:48 19:17:16 16° 56° (NE) 19:19:45 437.432
JAS-2 21 Nov 19:18:33 19:22:28 14° 284° (WNW) 19:26:27 435.910
RS-15 21 Nov 19:25:45 19:36:39 70° 324° (NW) 19:47:45 29.354- 29.394
COMPASS 1 21 Nov 19:25:55 19:29:01 21° 59° (ENE) 19:32:08 437.405
PHONESAT 2.4 21 Nov 19:38:05 19:39:30 12° 180° (S) 19:40:55 2401.200-2431.200
CINEMA 3 21 Nov 19:42:25 19:45:02 16° 56° (NE) 19:47:36 145.822/145.860
Cubesat XI-IV 21 Nov 19:42:39 19:45:09 13° 276° (W) 19:47:40 437.490
CUTE 1.7 & AOD 2 21 Nov 19:42:52 19:46:43 35° 65° (ENE) 19:50:35 437.475
DELFI C3 21 Nov 19:44:35 19:46:47 14° 55° (NE) 19:48:59 145.870
PRISM 21 Nov 19:48:01 19:51:54 35° 296° (WNW) 19:55:46 437.425
UKube-1 21 Nov 19:49:28 19:52:33 19° 56° (ENE) 19:55:39 .
CUBEBUG 2 21 Nov 19:49:36 19:51:25 13° 53° (NE) 19:53:13 437.445
CUBESAT XI-V 21 Nov 19:54:12 19:58:55 73° 288° (WNW) 20:03:33 437.345
UWE-3 21 Nov 19:59:38 20:01:43 14° 54° (NE) 20:03:47 435.000/436.395/437.385
Oscar 11 21 Nov 20:03:58 20:07:26 24° 61° (ENE) 20:10:55 145.826/435.025
DOVE 4 21 Nov 20:06:27 20:10:38 35° 66° (ENE) 20:14:38 437.250
MOZHAYETS 4 21 Nov 20:06:51 20:07:28 10° 312° (NW) 20:08:04
STRAND 1 21 Nov 20:07:07 20:12:14 68° 290° (WNW) 20:17:18 437.568
SHINDAISAT 21 Nov 20:07:20 20:08:54 21° 235° (SW) 20:10:27 437.305
VERMONT LUNAR 21 Nov 20:09:06 20:09:40 10° 189° (S) 20:10:15 437.305
HO-68 21 Nov 20:12:26 20:19:39 87° 70° (ENE) 20:26:54 435.675
DX 1 21 Nov 20:19:08 20:23:03 32° 63° (ENE) 20:26:59 434.975-435.025
SEEDS 21 Nov 20:21:40 20:25:50 69° 72° (ENE) 20:30:03 437.485
GOMX 1 21 Nov 20:25:51 20:30:37 65° 72° (ENE) 20:35:05 467.674
VELOX 1 21 Nov 20:29:04 20:32:00 17° 55° (NE) 20:34:56 145.980
BRITE-PL 21 Nov 20:29:54 20:35:00 89° 75° (ENE) 20:39:42 437.365/2234.400
AIST 1 21 Nov 20:38:33 20:42:54 65° 97° (E) 20:47:19
CANX-2 21 Nov 20:43:00 20:47:11 62° 258° (WSW) 20:51:24 2200.000
ZACube-1 21 Nov 20:43:43 20:47:14 26° 62° (ENE) 20:50:44 437.345
AAUSAT CUBESAT 2 21 Nov 20:48:15 20:52:25 85° 255° (WSW) 20:56:37 437.432
AISAT 21 Nov 20:51:21 20:55:02 25° 60° (ENE) 20:58:43 437.250
COMPASS 1 21 Nov 21:00:18 21:04:25 59° 259° (W) 21:08:35 437.405
HUMSAT D 21 Nov 21:02:47 21:06:13 26° 62° (ENE) 21:09:40 437.325/437.525
GONETS M04 21 Nov 21:03:00 21:11:32 55° 270° (W) 21:19:59
PCSat 21 Nov 21:07:58 21:13:02 42° 118° (ESE) 21:18:08 145.827
CINEMA 3 21 Nov 21:17:18 21:21:45 86° 255° (WSW) 21:26:02 145.822/145.860
DELFI C3 21 Nov 21:17:26 21:21:31 89° 76° (ENE) 21:25:39 145.870
CUTE 1.7 & AOD 2 21 Nov 21:18:55 21:22:42 32° 265° (W) 21:26:31 437.475
FUNcube-1 21 Nov 21:19:24 21:23:31 52° 70° (ENE) 21:27:35 145.935
CUBEBUG 1 21 Nov 21:22:36 21:25:53 21° 58° (ENE) 21:29:11 437.445
50 SAT 21 Nov 21:22:57 21:26:34 32° 65° (ENE) 21:30:12 437.505
CUBEBUG 2 21 Nov 21:23:11 21:27:28 74° 73° (ENE) 21:31:40 437.445
UKube-1 21 Nov 21:23:56 21:28:17 72° 256° (WSW) 21:32:41 .
CUBESAT XI-V 21 Nov 21:33:04 21:35:35 15° 308° (NW) 21:38:05 437.345
UWE-3 21 Nov 21:33:23 21:37:39 81° 74° (ENE) 21:41:51 435.000/436.395/437.385
Oscar 11 21 Nov 21:39:10 21:43:22 51° 260° (W) 21:47:36 145.826/435.025
RS-15 21 Nov 21:40:34 21:51:01 47° 356° (N) 22:01:45 29.354- 29.394
DOVE 4 21 Nov 21:44:11 21:48:27 35° 264° (W) 21:52:31 437.250
ESTCUBE 1 21 Nov 21:45:47 21:49:49 32° 63° (ENE) 21:53:53 437.505/2401.250
STRAND 1 21 Nov 21:47:40 21:50:35 15° 311° (NW) 21:53:28 437.568
DX 1 21 Nov 21:55:10 21:59:16 37° 262° (W) 22:03:23 434.975-435.025
SEEDS 21 Nov 21:59:31 22:02:11 16° 272° (W) 22:04:51 437.485
HO-68 21 Nov 22:02:38 22:08:17 24° 271° (W) 22:13:58 435.675
VELOX 1 21 Nov 22:03:33 22:08:03 85° 255° (WSW) 22:12:34 145.980
AUBIESAT-1 21 Nov 22:04:37 22:05:23 10° 38° (NE) 22:06:10 437.475
GOMX 1 21 Nov 22:05:36 22:09:08 20° 269° (W) 22:12:32 467.674
M-CUBED/EXP-1 PRIME 21 Nov 22:05:51 22:07:10 11° 39° (NE) 22:08:30 437.505
BRITE-PL 21 Nov 22:11:08 22:14:06 16° 272° (W) 22:16:57 437.365/2234.400
POPSAT HIP 1 21 Nov 22:13:27 22:15:13 12° 86° (E) 22:16:57 437.405
BEESAT 3 21 Nov 22:13:48 22:17:49 51° 126° (SE) 22:21:54 437.485
AIST 1 21 Nov 22:17:51 22:21:03 19° 298° (WNW) 22:24:17
ZACube-1 21 Nov 22:19:27 22:23:30 43° 261° (W) 22:27:31 437.345
BUGSAT 1 21 Nov 22:24:42 22:26:37 13° 86° (E) 22:28:31 437.445
BEESAT 2 21 Nov 22:25:16 22:29:21 59° 128° (SE) 22:33:31 435.950
AISAT 21 Nov 22:27:02 22:31:26 52° 259° (W) 22:35:51 437.250
AAUSAT CUBESAT 2 21 Nov 22:27:19 22:28:48 12° 275° (W) 22:30:18 437.432
TIGRISAT 21 Nov 22:29:12 22:32:44 24° 93° (E) 22:36:19 435.000
HUMSAT D 21 Nov 22:37:56 22:41:54 43° 261° (W) 22:45:52 437.325/437.525
AIST 2 21 Nov 22:38:59 22:43:03 45° 125° (SE) 22:47:11 435.215
UNISAT 6 21 Nov 22:39:59 22:43:51 30° 95° (E) 22:47:45 437.425
POLYITAN 1 21 Nov 22:42:51 22:46:15 23° 92° (E) 22:49:38 437.675
QB50P2 21 Nov 22:46:45 22:50:16 25° 93° (E) 22:53:46 145.880/145.840
PCSat 21 Nov 22:51:10 22:56:27 50° 319° (NW) 23:01:45 145.827
DUCHIFAT 1 21 Nov 22:55:47 22:59:31 29° 95° (E) 23:03:12 145.980
DELFI C3 21 Nov 22:55:49 22:57:29 12° 274° (W) 22:59:09 145.870
FUNcube-1 21 Nov 22:56:58 23:00:12 21° 269° (W) 23:03:24 145.935
CUBEBUG 1 21 Nov 22:57:26 23:01:52 68° 257° (WSW) 23:06:20 437.445
CINEMA 3 21 Nov 22:57:47 22:59:38 12° 274° (W) 23:01:27 145.822/145.860
50 SAT 21 Nov 22:58:17 23:01:55 32° 264° (W) 23:05:34 437.505
CUSAT 1 21 Nov 22:59:50 23:01:50 14° 64° (ENE) 23:04:05 437.405
CUBEBUG 2 21 Nov 23:02:08 23:04:42 15° 272° (W) 23:07:14 437.445
GONETS M04 21 Nov 23:02:15 23:06:14 14° 294° (WNW) 23:10:12
UKube-1 21 Nov 23:04:28 23:05:17 10° 275° (W) 23:06:06 .
SPROUT 21 Nov 23:04:37 23:08:42 42° 67° (ENE) 23:12:47 437.525
DANDE 21 Nov 23:05:31 23:07:04 12° 63° (ENE) 23:08:47 436.750
ANTELSAT 21 Nov 23:07:56 23:12:14 52° 100° (E) 23:16:35 437.575/2403.000
TISAT 1 21 Nov 23:09:17 23:13:27 52° 69° (ENE) 23:17:36 437.305
UWE-3 21 Nov 23:12:33 23:14:47 14° 273° (W) 23:17:01 435.000/436.395/437.385
NANOSAT C BR1 21 Nov 23:14:13 23:18:17 43° 99° (E) 23:22:18 145.865
ESTCUBE 1 21 Nov 23:22:20 23:26:38 40° 262° (W) 23:30:58 437.505/2401.250
QB50P1 21 Nov 23:23:25 23:27:34 52° 100° (E) 23:31:42 145.935-145.965
ITUPSAT 1 21 Nov 23:24:45 23:28:10 20° 55° (NE) 23:31:35 437.325
AUBIESAT-1 21 Nov 23:35:23 23:39:17 43° 59° (ENE) 23:43:32 437.475
SWISSCUBE 21 Nov 23:36:56 23:40:50 25° 58° (ENE) 23:44:45 437.505
M-CUBED/EXP-1 PRIME 21 Nov 23:37:15 23:41:10 48° 61° (ENE) 23:45:29 437.505
VELOX 1 21 Nov 23:43:18 23:45:22 13° 274° (W) 23:47:27 145.980
POPSAT HIP 1 21 Nov 23:47:33 23:51:49 88° 105° (ESE) 23:56:02 437.405
BEESAT 3 21 Nov 23:52:22 23:56:14 35° 328° (NNW) 00:00:08 437.485
RS-15 21 Nov 23:54:53 00:05:47 59° 28° (NNE) 00:17:05 29.354- 29.394
BUGSAT 1 21 Nov 23:58:35 00:02:46 85° 286° (WNW) 00:06:52 437.445
BEESAT 2 22 Nov 00:04:07 00:07:55 33° 329° (NNW) 00:11:47 435.950
TIGRISAT 22 Nov 00:05:34 00:09:46 50° 291° (WNW) 00:14:02 435.000
BEESAT 22 Nov 00:08:19 00:12:46 40° 64° (ENE) 00:17:15 436.000
KKS-1 22 Nov 00:14:46 00:17:01 14° 52° (NE) 00:19:16 437.445
UNISAT 6 22 Nov 00:16:42 00:20:46 40° 294° (WNW) 00:24:55 437.425
AIST 2 22 Nov 00:17:44 00:21:47 40° 326° (NW) 00:25:54 435.215
POLYITAN 1 22 Nov 00:18:23 00:22:29 49° 292° (WNW) 00:26:33 437.675
QB50P2 22 Nov 00:22:22 00:26:25 45° 292° (WNW) 00:30:27 145.880/145.840
DUCHIFAT 1 22 Nov 00:31:34 00:35:30 38° 294° (WNW) 00:39:24 145.980
PCSat 22 Nov 00:36:55 00:41:07 22° 344° (NNW) 00:45:19 145.827
SPROUT 22 Nov 00:41:12 00:44:57 28° 266° (W) 00:48:41 437.525
CUSAT 1 22 Nov 00:41:29 00:45:12 79° 258° (WSW) 00:50:12 437.405
ANTELSAT 22 Nov 00:45:17 00:48:49 24° 299° (WNW) 00:52:23 437.575/2403.000
TISAT 1 22 Nov 00:46:14 00:49:35 22° 268° (W) 00:52:57 437.305
DANDE 22 Nov 00:47:13 00:50:47 82° 257° (WSW) 00:55:36 436.750
NANOSAT C BR1 22 Nov 00:50:28 00:54:02 27° 298° (WNW) 00:57:35 145.865
MaSat-1 22 Nov 00:51:49 00:54:03 37° 51° (NE) 00:56:15 437.345
QB50P1 22 Nov 00:59:52 01:03:13 23° 300° (WNW) 01:06:32 145.935-145.965
ITUPSAT 1 22 Nov 01:00:42 01:05:31 82° 255° (WSW) 01:10:24 437.325
AUBIESAT-1 22 Nov 01:10:57 01:14:29 28° 261° (W) 01:18:18 437.475
M-CUBED/EXP-1 PRIME 22 Nov 01:13:08 01:16:31 25° 262° (W) 01:20:11 437.505
SWISSCUBE 22 Nov 01:13:38 01:18:23 60° 258° (WSW) 01:23:11 437.505
STARS 22 Nov 01:18:09 01:22:01 30° 62° (ENE) 01:25:52 437.465
POPSAT HIP 1 22 Nov 01:24:40 01:27:10 16° 305° (NW) 01:29:39 437.405
BEESAT 3 22 Nov 01:32:40 01:35:34 18° 351° (N) 01:38:30 437.485
BUGSAT 1 22 Nov 01:35:29 01:37:39 14° 306° (NW) 01:39:48 437.445
Oscar 19 22 Nov 01:42:20 01:47:11 40° 97° (E) 01:52:02 437.125/150
BEESAT 2 22 Nov 01:44:29 01:47:23 18° 353° (N) 01:50:17 435.950
BEESAT 22 Nov 01:46:18 01:50:41 35° 264° (W) 01:55:07 436.000
KKS-1 22 Nov 01:48:30 01:52:57 74° 72° (ENE) 01:57:25 437.445
AIST 2 22 Nov 01:58:21 02:01:29 19° 349° (N) 02:04:38 435.215
RS-15 22 Nov 02:07:41 02:18:40 69° 236° (SW) 02:30:08 29.354- 29.394
PCSat 22 Nov 02:22:28 02:26:26 20° 10° (N) 02:30:24 145.827
ISS 22 Nov 02:23:57 02:26:47 27° 152° (SSE) 02:29:38 145.825
ITAMSAT 1 22 Nov 02:25:19 02:30:12 39° 97° (E) 02:35:02 435.822/435.867
MOZHAYETS 4 22 Nov 02:25:25 02:26:01 10° 48° (NE) 02:26:37
YUBILEINY 22 Nov 02:26:07 02:33:57 38° 83° (E) 02:41:47 435.215
MaSat-1 22 Nov 02:28:11 02:28:24 10° 250° (WSW) 02:28:38 437.345
Gurwin Techsat 1B 22 Nov 02:31:17 02:35:52 29° 93° (E) 02:40:26 435.225
ITUPSAT 1 22 Nov 02:41:46 02:44:13 14° 275° (W) 02:46:41 437.325
